Location: Cormont
(50.5693°N, 1.7416°E)
Time: 14:10:14
(UTC+00:00)

NOSS 3-2 (A) - Pass Details

Date: 21 October 2019
Orbit: 816 x 1392 km, 63.4° (Epoch: 07 November)

Event Time Altitude Azimuth Distance (km) Brightness Sun altitude
Rises 19:22:21 0° 227° (SW) 3,426 6.8 -24.8°
Reaches altitude 10° 19:24:42 10° 228° (SW) 2,540 6.1 -25.2°
Maximum altitude 19:30:36 79° 316° (NW) 985 3.5 -26.1°
Enters shadow 19:33:48 33° 38° (NE) 1,649 4.5 -26.6°
